Regional Weather Roundup
Issued by NWS Jackson, KY

Home | Current Version | Previous Version | Text Only | Print | Product List | Glossary On
Versions: 1 2 3 4 5 6 7 8 9 10 11 12 13 14 15 16 17 18 19 20 21 22 23 24 25 26 27 28 29 30 31 32 33 34 35 36 37 38 39 40 41 42 43 44 45 46 47 48 49 50
000
ASUS43 KJKL 231910
RWRJKL

EAST KENTUCKY HOURLY WEATHER ROUNDUP
NATIONAL WEATHER SERVICE JACKSON KY
300 PM EDT FRI JUN 23 2017

NOTE: "FAIR" INDICATES FEW OR NO CLOUDS BELOW 12,000 FEET WITH
NO SIGNIFICANT WEATHER AND/OR OBSTRUCTIONS TO VISIBILITY.

* THESE REPORTS ARE NOT UNDER NWS QUALITY CONTROL AND MAY NOT
  REPORT WEATHER SUCH AS PRECIPITATION AND FOG.

KYZ079-080-083-085-087-088-110-112-115-119-120-232000
...EASTERN KENTUCKY...

CITY           SKY/WX    TMP DP  RH WIND       PRES   REMARKS
JACKSON        CLOUDY    78  71  79 VRB6      29.83F
LONDON         CLOUDY    77  71  82 S6        29.82F
SOMERSET*      CLOUDY    77  75  94 S7        29.80F
MONTICELLO*    CLOUDY    80  73  79 S9G21     29.80F
WILLIAMSBURG*  CLOUDY    77  72  83 SW6G17    29.83F
MIDDLESBORO*   CLOUDY    82  69  65 S8G17     29.86F
HARLAN APT*    CLOUDY    81  64  57 S8        29.87F
PIKE CO APT*   PTSUNNY   79  72  79 SW6       29.86F
BIG SANDY APT* MOCLDY    78  72  80 SW9G18    29.84F
MOREHEAD APT*  CLOUDY    82  70  65 S14G22    29.79S HAZE
$$

KYZ035-036-041-042-044-050-067-078-099-232000
...CENTRAL KENTUCKY...

CITY           SKY/WX    TMP DP  RH WIND       PRES   REMARKS
MT STERLING*   CLOUDY    81  72  74 SW13G22   29.79S
FLEMING/MASON* CLOUDY    83  70  63 SW16G22   29.75F
DANVILLE*      CLOUDY    81  70  69 SW14G23   29.77F
LEXINGTON      CLOUDY    83  69  62 SW16      29.75F
FRANKFORT      CLOUDY    83  70  64 S10       29.72F
LOUISVILLE     LGT RAIN  80  74  81 SW6       29.70F
LEBANON*       MOCLDY    81  72  74 S10       29.73F
GLASGOW*       RAIN      74  74 100 SW6       29.73F
BOWLING GREEN  RAIN      77  75  93 SE9       29.69F FOG
$$

KYZ091>093-OHZ055-061-077-WVZ005-015-034-035-042-232000
...SOUTHERN OHIO/WEST VIRGINIA...

CITY           SKY/WX    TMP DP  RH WIND       PRES   REMARKS
COVINGTON      HVY RAIN  73  72  96 NW10      29.74F FOG
COLUMBUS       LGT RAIN  72  70  93 SW13      29.71R
DAYTON         HVY RAIN  67  67 100 S8        29.74F FOG
WILMINGTON     HVY RAIN  71  71 100 W14G28    29.74F VSB 1
HUNTINGTON     PTSUNNY   86  69  56 SW15G23   29.76F HX  90
CHARLESTON     PTSUNNY   84  70  62 S14G24    29.79F
PINEVILLE*     CLOUDY    81  68  64 MISG      29.94F
BECKLEY        CLOUDY    75  64  68 SW17G28   29.93F
BLUEFIELD      CLOUDY    77  61  57 W18G29    29.97F
LOGAN CO APT*  MOCLDY    79  70  73 SW10G23   29.86F
$$

VAZ002-007-008-TNZ017-027-036-066-071-232000
...SOUTHWEST VIRGINIA/EAST TENNESSEE...

CITY           SKY/WX    TMP DP  RH WIND       PRES   REMARKS
WISE*          CLOUDY    77  63  61 S17G24    29.96F
JONESVILLE*      N/A     82  68  61 SW14G21   29.90F
ABINGDON*      MOSUNNY   83  71  66 W6        29.94F
BRISTOL        PTSUNNY   84  70  62 CALM      29.90F
MORRISTOWN*    CLEAR     88  63  42 W17G26    29.86F
SEVIERVILLE*     N/A     90  57  33 SW17      29.84F
KNOXVILLE      MOSUNNY   87  65  47 S20G30    29.85F
LAFOLLETTE*    MOCLDY    81  70  69 S13G18    29.88F
OAK RIDGE      CLOUDY    84  67  56 VRB6G22   29.86F
CROSSVILLE     LGT RAIN  74  68  81 SW9G22    29.88F
NASHVILLE      LGT RAIN  78  74  87 S13       29.71F FOG
$$

...KEY TO REMARKS...
VSB - VISIBILITY IN MILES
WCI - WIND CHILL INDEX
HX  - HEAT INDEX

$$



USA.gov is the U.S. government's official web portal to all federal, state and local government web resources and services.